Time,TemperatureF,DewpointF,PressureIn,WindDirection,WindDirectionDegrees,WindSpeedMPH,WindSpeedGustMPH,Humidity,HourlyPrecipIn,Conditions,Clouds,dailyrainin,SoftwareType,DateUTC
2013-08-08 00:12:00,61.4,58.0,29.92,North,5,0.0,-999.0,88,-99.99,,,0.00,weatherlink.com 1.10,2013-08-08 07:12:00,
2013-08-08 00:27:00,61.5,58.0,29.92,North,5,0.0,-999.0,89,-99.99,,,0.00,weatherlink.com 1.10,2013-08-08 07:27:00,
2013-08-08 00:42:00,61.2,58.0,29.91,North,5,0.0,-999.0,89,-99.99,,,0.00,weatherlink.com 1.10,2013-08-08 07:42:00,
2013-08-08 00:57:00,61.0,58.0,29.91,North,5,0.0,-999.0,89,-99.99,,,0.00,weatherlink.com 1.10,2013-08-08 07:57:00,
2013-08-08 01:12:00,60.9,58.0,29.91,North,5,0.0,-999.0,89,-99.99,,,0.00,weatherlink.com 1.10,2013-08-08 08:12:00,
2013-08-08 01:27:00,60.5,57.0,29.91,North,5,0.0,-999.0,89,-99.99,,,0.00,weatherlink.com 1.10,2013-08-08 08:27:00,
2013-08-08 01:42:00,60.3,57.0,29.91,North,5,0.0,-999.0,89,-99.99,,,0.00,weatherlink.com 1.10,2013-08-08 08:42:00,
2013-08-08 01:57:00,60.2,57.0,29.90,North,5,0.0,-999.0,90,-99.99,,,0.00,weatherlink.com 1.10,2013-08-08 08:57:00,
2013-08-08 02:12:00,60.2,57.0,29.90,North,5,0.0,-999.0,90,-99.99,,,0.00,weatherlink.com 1.10,2013-08-08 09:12:00,
2013-08-08 02:27:00,60.3,57.0,29.90,North,5,0.0,-999.0,90,-99.99,,,0.00,weatherlink.com 1.10,2013-08-08 09:27:00,
2013-08-08 02:42:00,60.2,58.0,29.89,North,5,0.0,-999.0,91,-99.99,,,0.00,weatherlink.com 1.10,2013-08-08 09:42:00,
2013-08-08 02:57:00,59.4,57.0,29.89,North,5,0.0,-999.0,90,-99.99,,,0.00,weatherlink.com 1.10,2013-08-08 09:57:00,
2013-08-08 03:12:00,59.0,56.0,29.89,North,5,0.0,-999.0,90,-99.99,,,0.00,weatherlink.com 1.10,2013-08-08 10:12:00,
2013-08-08 03:27:00,58.6,56.0,29.89,North,5,0.0,-999.0,91,-99.99,,,0.00,weatherlink.com 1.10,2013-08-08 10:27:00,
2013-08-08 03:42:00,58.6,56.0,29.89,North,5,0.0,-999.0,91,-99.99,,,0.00,weatherlink.com 1.10,2013-08-08 10:42:00,
2013-08-08 03:57:00,58.3,56.0,29.89,North,5,0.0,-999.0,91,-99.99,,,0.00,weatherlink.com 1.10,2013-08-08 10:57:00,
2013-08-08 04:12:00,58.0,55.0,29.89,North,5,0.0,-999.0,91,-99.99,,,0.00,weatherlink.com 1.10,2013-08-08 11:12:00,
2013-08-08 04:27:00,57.9,55.0,29.89,North,5,0.0,-999.0,91,-99.99,,,0.00,weatherlink.com 1.10,2013-08-08 11:27:00,
2013-08-08 04:42:00,57.4,55.0,29.89,North,5,0.0,-999.0,91,-99.99,,,0.00,weatherlink.com 1.10,2013-08-08 11:42:00,
2013-08-08 04:57:00,57.0,55.0,29.89,North,5,0.0,-999.0,91,-99.99,,,0.00,weatherlink.com 1.10,2013-08-08 11:57:00,
2013-08-08 05:12:00,56.6,54.0,29.89,North,5,0.0,-999.0,91,-99.99,,,0.00,weatherlink.com 1.10,2013-08-08 12:12:00,
2013-08-08 05:27:00,56.5,54.0,29.89,North,5,0.0,-999.0,91,-99.99,,,0.00,weatherlink.com 1.10,2013-08-08 12:27:00,
2013-08-08 05:42:00,56.0,54.0,29.89,North,5,0.0,-999.0,91,-99.99,,,0.00,weatherlink.com 1.10,2013-08-08 12:42:00,
2013-08-08 05:57:00,56.0,54.0,29.90,North,5,0.0,-999.0,92,-99.99,,,0.00,weatherlink.com 1.10,2013-08-08 12:57:00,
2013-08-08 06:12:00,56.0,54.0,29.90,North,5,0.0,-999.0,91,-99.99,,,0.00,weatherlink.com 1.10,2013-08-08 13:12:00,
2013-08-08 06:28:00,56.5,54.0,29.91,North,5,0.0,-999.0,92,-99.99,,,0.00,weatherlink.com 1.10,2013-08-08 13:28:00,
2013-08-08 06:43:00,56.7,55.0,29.91,North,5,0.0,-999.0,92,-99.99,,,0.00,weatherlink.com 1.10,2013-08-08 13:43:00,
2013-08-08 06:58:00,57.2,55.0,29.91,North,5,0.0,-999.0,92,-99.99,,,0.00,weatherlink.com 1.10,2013-08-08 13:58:00,
2013-08-08 07:13:00,60.1,58.0,29.92,North,5,0.0,-999.0,93,-99.99,,,0.00,weatherlink.com 1.10,2013-08-08 14:13:00,
2013-08-08 07:28:00,61.4,59.0,29.92,North,5,0.0,-999.0,93,-99.99,,,0.00,weatherlink.com 1.10,2013-08-08 14:28:00,
2013-08-08 07:43:00,61.9,60.0,29.93,North,5,0.0,-999.0,93,-99.99,,,0.00,weatherlink.com 1.10,2013-08-08 14:43:00,
2013-08-08 07:58:00,62.0,60.0,29.93,North,5,0.0,-999.0,92,-99.99,,,0.00,weatherlink.com 1.10,2013-08-08 14:58:00,
2013-08-08 08:13:00,62.6,60.0,29.93,North,5,0.0,-999.0,92,-99.99,,,0.00,weatherlink.com 1.10,2013-08-08 15:13:00,
2013-08-08 08:28:00,63.1,61.0,29.93,West,271,2.0,-999.0,91,-99.99,,,0.00,weatherlink.com 1.10,2013-08-08 15:28:00,
2013-08-08 08:43:00,63.6,60.0,29.93,West,270,0.0,-999.0,89,-99.99,,,0.00,weatherlink.com 1.10,2013-08-08 15:43:00,
2013-08-08 08:58:00,64.2,61.0,29.93,SSW,207,2.0,-999.0,88,-99.99,,,0.00,weatherlink.com 1.10,2013-08-08 15:58:00,
2013-08-08 09:13:00,65.1,61.0,29.92,SSW,207,3.0,-999.0,86,-99.99,,,0.00,weatherlink.com 1.10,2013-08-08 16:13:00,
2013-08-08 09:28:00,66.8,62.0,29.92,West,271,1.0,-999.0,84,-99.99,,,0.00,weatherlink.com 1.10,2013-08-08 16:28:00,
2013-08-08 09:43:00,68.5,62.0,29.92,NNE,23,2.0,-999.0,80,-99.99,,,0.00,weatherlink.com 1.10,2013-08-08 16:43:00,
2013-08-08 09:58:00,69.7,62.0,29.92,SW,223,0.0,-999.0,77,-99.99,,,0.00,weatherlink.com 1.10,2013-08-08 16:58:00,
2013-08-08 10:13:00,71.0,62.0,29.92,WSW,257,4.0,-999.0,74,-99.99,,,0.00,weatherlink.com 1.10,2013-08-08 17:13:00,
2013-08-08 10:28:00,71.2,62.0,29.93,SW,234,4.0,-999.0,72,-99.99,,,0.00,weatherlink.com 1.10,2013-08-08 17:28:00,
2013-08-08 10:58:00,71.7,62.0,29.93,SSW,203,3.0,-999.0,72,-99.99,,,0.00,weatherlink.com 1.10,2013-08-08 17:58:00,
2013-08-08 11:13:00,71.6,62.0,29.93,SSW,202,3.0,-999.0,72,-99.99,,,0.00,weatherlink.com 1.10,2013-08-08 18:13:00,
2013-08-08 11:28:00,72.8,63.0,29.92,SSW,204,4.0,-999.0,71,-99.99,,,0.00,weatherlink.com 1.10,2013-08-08 18:28:00,
2013-08-08 11:43:00,73.3,63.0,29.92,SSW,212,4.0,-999.0,70,-99.99,,,0.00,weatherlink.com 1.10,2013-08-08 18:43:00,
2013-08-08 11:58:00,72.4,62.0,29.92,West,263,2.0,-999.0,70,-99.99,,,0.00,weatherlink.com 1.10,2013-08-08 18:58:00,
2013-08-08 12:13:00,72.3,62.0,29.92,WSW,246,6.0,-999.0,69,-99.99,,,0.00,weatherlink.com 1.10,2013-08-08 19:13:00,
2013-08-08 12:28:00,72.3,62.0,29.91,WSW,246,5.0,-999.0,69,-99.99,,,0.00,weatherlink.com 1.10,2013-08-08 19:28:00,
2013-08-08 12:43:00,74.1,62.0,29.91,South,182,3.0,-999.0,67,-99.99,,,0.00,weatherlink.com 1.10,2013-08-08 19:43:00,
2013-08-08 12:58:00,73.6,62.0,29.91,SW,219,7.0,-999.0,67,-99.99,,,0.00,weatherlink.com 1.10,2013-08-08 19:58:00,
2013-08-08 13:14:00,74.5,62.0,29.91,SW,227,6.0,-999.0,65,-99.99,,,0.00,weatherlink.com 1.10,2013-08-08 20:14:00,
2013-08-08 13:29:00,74.3,63.0,29.90,SSW,209,6.0,-999.0,67,-99.99,,,0.00,weatherlink.com 1.10,2013-08-08 20:29:00,
2013-08-08 13:44:00,74.4,62.0,29.90,SSW,198,6.0,-999.0,66,-99.99,,,0.00,weatherlink.com 1.10,2013-08-08 20:44:00,
2013-08-08 13:59:00,74.6,62.0,29.90,SSW,211,4.0,-999.0,66,-99.99,,,0.00,weatherlink.com 1.10,2013-08-08 20:59:00,
2013-08-08 14:14:00,75.0,63.0,29.89,SSW,209,6.0,-999.0,67,-99.99,,,0.00,weatherlink.com 1.10,2013-08-08 21:14:00,
2013-08-08 14:44:00,75.1,63.0,29.88,SW,223,3.0,-999.0,66,-99.99,,,0.00,weatherlink.com 1.10,2013-08-08 21:44:00,
2013-08-08 14:59:00,75.8,63.0,29.88,SW,214,4.0,-999.0,64,-99.99,,,0.00,weatherlink.com 1.10,2013-08-08 21:59:00,
2013-08-08 15:14:00,75.5,62.0,29.87,SW,219,4.0,-999.0,64,-99.99,,,0.00,weatherlink.com 1.10,2013-08-08 22:14:00,
2013-08-08 15:29:00,76.8,63.0,29.86,SSW,211,4.0,-999.0,62,-99.99,,,0.00,weatherlink.com 1.10,2013-08-08 22:29:00,
2013-08-08 15:59:00,77.5,62.0,29.86,WSW,248,7.0,-999.0,60,-99.99,,,0.00,weatherlink.com 1.10,2013-08-08 22:59:00,
2013-08-08 16:29:00,78.2,62.0,29.85,WSW,254,5.0,-999.0,58,-99.99,,,0.00,weatherlink.com 1.10,2013-08-08 23:29:00,
2013-08-08 16:44:00,79.1,63.0,29.85,North,11,2.0,-999.0,58,-99.99,,,0.00,weatherlink.com 1.10,2013-08-08 23:44:00,
2013-08-08 16:59:00,78.1,62.0,29.85,North,350,2.0,-999.0,59,-99.99,,,0.00,weatherlink.com 1.10,2013-08-08 23:59:00,
2013-08-08 17:13:00,78.5,63.0,29.85,NNE,29,0.0,-999.0,59,-99.99,,,0.00,weatherlink.com 1.10,2013-08-09 00:13:00,
2013-08-08 17:28:00,78.4,62.0,29.84,North,355,2.0,-999.0,58,-99.99,,,0.00,weatherlink.com 1.10,2013-08-09 00:28:00,
2013-08-08 17:43:00,77.2,62.0,29.84,WNW,284,3.0,-999.0,59,-99.99,,,0.00,weatherlink.com 1.10,2013-08-09 00:43:00,
2013-08-08 17:58:00,75.2,62.0,29.84,West,269,3.0,-999.0,63,-99.99,,,0.00,weatherlink.com 1.10,2013-08-09 00:58:00,
2013-08-08 18:13:00,74.1,62.0,29.83,NNW,327,0.0,-999.0,66,-99.99,,,0.00,weatherlink.com 1.10,2013-08-09 01:13:00,
2013-08-08 18:28:00,73.6,62.0,29.83,North,355,3.0,-999.0,66,-99.99,,,0.00,weatherlink.com 1.10,2013-08-09 01:28:00,
2013-08-08 18:43:00,72.2,61.0,29.84,NNW,340,0.0,-999.0,68,-99.99,,,0.00,weatherlink.com 1.10,2013-08-09 01:43:00,
2013-08-08 18:58:00,71.4,61.0,29.84,WNW,290,3.0,-999.0,70,-99.99,,,0.00,weatherlink.com 1.10,2013-08-09 01:58:00,
2013-08-08 19:13:00,70.2,60.0,29.84,NW,324,1.0,-999.0,71,-99.99,,,0.00,weatherlink.com 1.10,2013-08-09 02:13:00,
2013-08-08 19:28:00,69.1,60.0,29.84,WNW,300,1.0,-999.0,72,-99.99,,,0.00,weatherlink.com 1.10,2013-08-09 02:28:00,
2013-08-08 19:58:00,67.6,59.0,29.84,NW,313,1.0,-999.0,74,-99.99,,,0.00,weatherlink.com 1.10,2013-08-09 02:58:00,
2013-08-08 20:13:00,67.1,59.0,29.85,NNW,347,2.0,-999.0,75,-99.99,,,0.00,weatherlink.com 1.10,2013-08-09 03:13:00,
2013-08-08 20:29:00,66.9,59.0,29.85,NNW,331,0.0,-999.0,77,-99.99,,,0.00,weatherlink.com 1.10,2013-08-09 03:29:00,
2013-08-08 20:43:00,66.5,60.0,29.85,North,355,0.0,-999.0,79,-99.99,,,0.00,weatherlink.com 1.10,2013-08-09 03:43:00,
2013-08-08 20:58:00,66.2,60.0,29.85,North,355,0.0,-999.0,80,-99.99,,,0.00,weatherlink.com 1.10,2013-08-09 03:58:00,
2013-08-08 21:14:00,65.8,60.0,29.86,North,355,0.0,-999.0,82,-99.99,,,0.00,weatherlink.com 1.10,2013-08-09 04:14:00,
2013-08-08 21:29:00,65.3,60.0,29.86,NNW,346,0.0,-999.0,82,-99.99,,,0.00,weatherlink.com 1.10,2013-08-09 04:29:00,
2013-08-08 21:44:00,65.0,60.0,29.86,NNW,346,0.0,-999.0,83,-99.99,,,0.00,weatherlink.com 1.10,2013-08-09 04:44:00,
2013-08-08 21:59:00,64.7,59.0,29.87,NNW,346,0.0,-999.0,83,-99.99,,,0.00,weatherlink.com 1.10,2013-08-09 04:59:00,
2013-08-08 22:14:00,64.2,59.0,29.86,NNW,346,0.0,-999.0,84,-99.99,,,0.00,weatherlink.com 1.10,2013-08-09 05:14:00,
2013-08-08 22:29:00,63.7,59.0,29.86,NNW,346,0.0,-999.0,84,-99.99,,,0.00,weatherlink.com 1.10,2013-08-09 05:29:00,
2013-08-08 22:44:00,63.4,59.0,29.86,NNW,346,0.0,-999.0,85,-99.99,,,0.00,weatherlink.com 1.10,2013-08-09 05:44:00,
2013-08-08 22:59:00,63.0,59.0,29.86,NNW,346,0.0,-999.0,85,-99.99,,,0.00,weatherlink.com 1.10,2013-08-09 05:59:00,
2013-08-08 23:14:00,62.7,59.0,29.86,NNW,346,0.0,-999.0,86,-99.99,,,0.00,weatherlink.com 1.10,2013-08-09 06:14:00,
2013-08-08 23:29:00,62.5,58.0,29.86,NNW,346,0.0,-999.0,86,-99.99,,,0.00,weatherlink.com 1.10,2013-08-09 06:29:00,
2013-08-08 23:44:00,62.4,59.0,29.86,NNW,346,0.0,-999.0,87,-99.99,,,0.00,weatherlink.com 1.10,2013-08-09 06:44:00,
2013-08-08 23:59:00,62.2,58.0,29.86,NNW,346,0.0,-999.0,87,-99.99,,,0.00,weatherlink.com 1.10,2013-08-09 06:59:00,